OPS 4682 DEB, 17093

Orbit data source: Space-Track

OPS 4682 DEB, 17093 is space debris in LEO originally from a launch on Sat, 03 Apr 1965 UTC launched from the Air Force Western Test Range (AFWTR). Debris objects in space refer to the collection of defunct objects orbiting the Earth. Examples of debris include non-operational satellites, rocket bodies, and fragments generated from explosions, collisions, or faulty payload assembly.

Loading next visibility...
Identifier
17093, 1965-027U
Orbit
LEO
Country
Flag of USUS
Related business
Manufacturer
Unknown
Mission
Spacecraft
Bus & Motor
Unknown
Mass
Unknown
Launch date (UTC)
1965-04-03 (61 years ago)
Launch vehicle
Unknown
Launch site
Air Force Western Test Range (AFWTR)
Object type
Payload
Rocket body
Debris
Shape & HBR
Unknown shape, 0.1 m
Radar Cross Section
Medium (>0.1 m² and <1 m²)

Expand to show TLE details & history
Last TLE update: 15 hours ago

TLE from 15 hours ago
0 OPS 4682 DEB
1 17093U 65027U   26150.07473573  .00000623  00000-0  20971-2 0  9992
2 17093  90.2420   8.1651 0028134  73.9663  80.6968 12.98154657944622
Epoch: 2026-05-30T01:47Z
TLE epoch observation values (Epoch: 2026-05-30T01:47:37.167Z)
Latitude
25.04363°
Longitude
-86.22324°
Altitude
1,268.933 km
Speed
7.225 km/s
True Right ascension
12h 33m 06s
True Declination
24° 55' 15"
Sunlit
Object was in daylight at epoch
Visualization orbit readout
Latitude
Unknown
Longitude
Unknown
Altitude
Unknown
Speed
Unknown
Apparent Right ascension
Unknown
Apparent Declination
Unknown
Sunlit
N/A
Visualization observer readout
Local Sidereal Time
02:49:01
Azimuth
Unknown
Elevation
Unknown
Doppler factor
Unknown
Orbital elements
Apogee altitude
1,287.962 km
Perigee altitude
1,244.948 km
Semi-major axis
7,644.592 km
Eccentricity
0.00281
Inclination
90.242°
RAAN
8.1651°
Arg. of periapsis
73.9663°
True anomaly
81.01513°
Mean anomaly
80.6968°
Eccentric anomaly
80.85595°
Mean motion
3.24722 °/min
Orbital period
110.86 mins
BSTAR
0.0020971
Loading maneuver chart data...
Computing Atmospheric mass density...
Loading historical data...
Loading historical data...
Loading historical data...
Loading historical data...
Loading historical data...
Loading historical data...
Loading historical data...

Documentation

Showing up to 5 results
|